Date,TemperatureHighF,TemperatureAvgF,TemperatureLowF,DewpointHighF,DewpointAvgF,DewpointLowF,HumidityHigh,HumidityAvg,HumidityLow,PressureMaxIn,PressureMinIn,WindSpeedMaxMPH,WindSpeedAvgMPH,GustSpeedMaxMPH,PrecipitationSumIn
2013-1-1,19,4,-12,16,0,-15,88,84,75,30.38,30.14,13,4,17,0.00
2013-1-2,21,16,13,18,13,11,93,91,84,30.15,30.02,12,4,17,0.00
2013-1-3,20,11,7,16,8,3,89,85,77,30.34,30.14,14,11,20,0.00
2013-1-4,27,20,14,18,14,11,93,79,67,30.19,30.09,16,7,20,0.00
2013-1-5,21,15,9,15,12,7,92,85,74,30.14,29.91,13,5,18,0.00
2013-1-6,19,13,8,15,10,4,92,85,76,30.29,30.08,12,6,20,0.00
2013-1-7,34,28,19,27,22,15,91,81,72,30.11,29.95,22,10,30,0.00
2013-1-8,34,26,16,29,23,14,94,87,78,30.01,29.80,14,5,23,0.00
2013-1-9,33,30,25,28,24,20,87,77,68,30.40,29.96,27,11,36,0.00
2013-1-10,40,35,28,33,26,21,96,71,49,30.33,29.75,14,8,22,0.23
2013-1-11,40,36,34,39,35,33,97,96,95,29.76,29.39,13,5,17,0.22
2013-1-12,38,14,3,36,10,-2,94,81,74,30.14,29.40,32,17,42,0.01
2013-1-13,8,4,1,3,-1,-3,85,81,76,30.33,30.12,12,8,19,0.00
2013-1-14,13,7,4,8,3,1,87,82,70,30.49,30.33,15,6,20,0.00
2013-1-15,29,20,10,19,14,7,88,76,62,30.36,29.90,17,9,26,0.00
2013-1-16,36,25,10,32,21,2,95,83,63,30.27,29.71,19,12,27,0.00
2013-1-17,18,10,1,12,4,-4,84,74,61,30.46,30.26,12,5,16,0.00
2013-1-18,40,30,16,33,25,12,91,81,69,30.36,29.78,16,8,21,0.00
2013-1-19,38,24,2,32,19,-5,94,80,61,30.28,29.70,44,16,61,0.00
2013-1-20,7,2,-2,2,-4,-9,82,73,64,30.48,30.28,23,13,33,0.00
2013-1-21,-2,-6,-11,-9,-13,-18,82,73,68,30.45,30.38,20,14,28,0.00
2013-1-22,6,-3,-10,-1,-10,-15,81,74,68,30.51,30.35,9,4,12,0.00
2013-1-23,15,8,-3,9,0,-14,88,71,55,30.68,30.24,26,10,42,0.00
2013-1-24,14,3,-5,2,-8,-15,67,61,51,30.76,30.27,14,7,22,0.00
2013-1-25,19,12,3,13,5,-3,80,72,58,30.27,30.03,25,14,46,0.00
2013-1-26,25,12,-1,13,4,-4,86,70,53,30.32,30.07,12,5,17,0.00
2013-1-27,32,30,25,31,24,13,96,78,58,30.07,29.79,9,5,21,0.11
2013-1-28,34,32,30,33,30,29,97,96,93,29.88,29.63,11,3,16,0.09
2013-1-29,34,32,28,31,29,22,97,91,82,29.72,29.52,15,8,22,0.05
2013-1-30,28,17,8,23,12,4,86,80,75,29.77,29.63,24,16,33,0.01
2013-1-31,8,-2,-7,4,-8,-14,82,76,72,30.35,29.77,26,18,35,0.00